Weather History for Iowa Falls, IA

Change the Weather History Date:

Thursday, October 10, 2013

  Actual Average Record
Temperature  
Mean Temperature 60 °F -  
Max Temperature 76 °F 62 °F 85 °F (1962)
Min Temperature 44 °F 38 °F 20 °F (1964)
Degree Days  
Heating Degree Days 5    
Growing Degree Days 10 (Base 50)    
Moisture  
Dew Point 46 °F    
Average Humidity 65    
Maximum Humidity 90    
Minimum Humidity 32    
Precipitation  
Precipitation 0.00 in - - ()
Sea Level Pressure  
Sea Level Pressure 30.02 in    
Wind  
Wind Speed 7 mph (SE)    
Max Wind Speed 18 mph    
Max Gust Speed 24 mph    
Visibility 10 miles    
Events      
Averages and records for this station are not official NWS values.
T = Trace of Precipitation, MM = Missing Value Source: NWS Daily Summary

Daily Weather History Graph

Daily Weather History Graph

Search for Another Location

Airport:

Trip Planner

Search our weather history database for the weather conditions in past years. The results will help you decide how hot, cold, wet, or windy it might be!

Date:

Astronomy

Oct. 10, 2013 Rise Set
Actual Time 7:20 AM CDT 6:38 PM CDT
Civil Twilight 6:52 AM CDT 7:06 PM CDT
Nautical Twilight 6:19 AM CDT 7:39 PM CDT
Astronomical Twilight 5:47 AM CDT 8:11 PM CDT
Moon 1:17 PM CDT (10/10) 11:12 PM CDT (10/10)
Length of Visible Light 12h 14m
Length of Day
11h 18m
Waxing Crescent, 36% of the Moon is Illuminated
Oct 10
Waxing Crescent
Oct 11
First Quarter
Oct 18
Full
Oct 26
Last Quarter
Nov 3
New

Hourly Weather History & Observations

Time (CDT) Temp. Windchill Dew Point Humidity Pressure Visibility Wind Dir Wind Speed Gust Speed Precip Events Conditions
12:15 AM 50.0 °F - 43.3 °F 78% 30.08 in 10.0 mi SE 5.8 mph - N/A   Clear
12:35 AM 49.1 °F - 43.5 °F 81% 30.08 in 10.0 mi SE 5.8 mph - N/A   Clear
12:55 AM 48.2 °F - 43.2 °F 83% 30.08 in 10.0 mi SE 5.8 mph - N/A   Clear
1:15 AM 48.2 °F - 43.0 °F 82% 30.08 in 10.0 mi SE 6.9 mph - N/A   Clear
1:35 AM 47.7 °F - 42.4 °F 82% 30.09 in 10.0 mi SE 5.8 mph - N/A   Clear
1:55 AM 48.2 °F - 42.6 °F 81% 30.09 in 10.0 mi SSE 6.9 mph - N/A   Clear
2:15 AM 48.4 °F - 42.8 °F 81% 30.09 in 10.0 mi SE 4.6 mph - N/A   Clear
2:35 AM 47.7 °F - 42.6 °F 83% 30.09 in 10.0 mi SE 4.6 mph - N/A   Clear
2:55 AM 45.9 °F 44.6 °F 41.7 °F 85% 30.09 in 10.0 mi ESE 3.5 mph - N/A   Clear
3:15 AM 44.8 °F 42.4 °F 41.2 °F 87% 30.08 in 10.0 mi ESE 4.6 mph - N/A   Clear
3:35 AM 44.8 °F 43.3 °F 41.4 °F 88% 30.08 in 10.0 mi SE 3.5 mph - N/A   Clear
3:55 AM 45.9 °F 43.6 °F 41.7 °F 85% 30.08 in 10.0 mi ESE 4.6 mph - N/A   Clear
4:35 AM 47.3 °F - 42.8 °F 84% 30.08 in 10.0 mi SE 5.8 mph - N/A   Clear
4:55 AM 47.7 °F - 43.0 °F 84% 30.08 in 10.0 mi SE 5.8 mph - N/A   Clear
5:15 AM 47.7 °F - 42.8 °F 83% 30.08 in 10.0 mi SE 4.6 mph - N/A   Clear
5:35 AM 46.6 °F - 42.4 °F 85% 30.08 in 10.0 mi SE 4.6 mph - N/A   Clear
5:55 AM 46.0 °F 44.8 °F 42.6 °F 88% 30.08 in 10.0 mi SE 3.5 mph - N/A   Clear
6:15 AM 45.9 °F 43.6 °F 42.3 °F 87% 30.08 in 10.0 mi SE 4.6 mph - N/A   Clear
6:35 AM 45.7 °F 43.4 °F 42.3 °F 88% 30.08 in 10.0 mi SE 4.6 mph - N/A   Clear
6:55 AM 45.7 °F 42.7 °F 42.4 °F 88% 30.08 in 10.0 mi SE 5.8 mph - N/A   Clear
7:15 AM 45.7 °F 43.4 °F 42.3 °F 88% 30.09 in 10.0 mi SE 4.6 mph - N/A   Clear
7:35 AM 45.7 °F 42.7 °F 42.8 °F 90% 30.09 in 10.0 mi SE 5.8 mph - N/A   Clear
7:55 AM 46.2 °F 44.1 °F 43.0 °F 88% 30.08 in 10.0 mi SE 4.6 mph - N/A   Clear
8:15 AM 47.3 °F - 43.9 °F 88% 30.08 in 10.0 mi SE 3.5 mph - N/A   Clear
8:35 AM 50.0 °F - 44.8 °F 82% 30.08 in 10.0 mi SE 5.8 mph - N/A   Clear
8:55 AM 51.8 °F - 45.9 °F 80% 30.08 in 10.0 mi SE 6.9 mph - N/A   Clear
9:15 AM 53.6 °F - 46.4 °F 77% 30.08 in 10.0 mi SE 8.1 mph - N/A   Clear
9:35 AM 55.6 °F - 47.5 °F 74% 30.07 in 10.0 mi SE 9.2 mph - N/A   Clear
9:55 AM 58.1 °F - 48.6 °F 71% 30.07 in 10.0 mi SE 8.1 mph - N/A   Clear
10:15 AM 60.4 °F - 49.5 °F 67% 30.07 in 10.0 mi SE 6.9 mph - N/A   Clear
10:35 AM 63.5 °F - 49.5 °F 60% 30.07 in 10.0 mi SSE 6.9 mph - N/A   Clear
10:55 AM 66.2 °F - 50.2 °F 56% 30.07 in 10.0 mi SSE 10.4 mph - N/A   Clear
11:15 AM 67.5 °F - 50.2 °F 54% 30.07 in 10.0 mi SSE 10.4 mph - N/A   Clear
11:35 AM 69.3 °F - 49.6 °F 50% 30.07 in 10.0 mi South 10.4 mph - N/A   Clear
11:55 AM 70.3 °F - 50.2 °F 49% 30.06 in 10.0 mi SSE 9.2 mph - N/A   Clear
12:15 PM 71.4 °F - 50.0 °F 47% 30.06 in 10.0 mi South 9.2 mph - N/A   Clear
12:35 PM 72.5 °F - 50.0 °F 45% 30.05 in 10.0 mi SSE 10.4 mph 17.3 mph N/A   Clear
12:55 PM 73.4 °F - 48.7 °F 42% 30.04 in 10.0 mi SSE 13.8 mph 17.3 mph N/A   Clear
1:15 PM 74.1 °F - 47.3 °F 38% 30.03 in 10.0 mi South 13.8 mph 19.6 mph N/A   Clear
1:35 PM 74.7 °F - 45.7 °F 36% 30.02 in 10.0 mi SSE 9.2 mph 18.4 mph N/A   Clear
1:55 PM 75.2 °F - 44.8 °F 34% 30.01 in 10.0 mi SSE 16.1 mph - N/A   Clear
2:15 PM 75.6 °F - 45.5 °F 34% 30.00 in 10.0 mi SSE 15.0 mph 19.6 mph N/A   Clear
2:35 PM 75.7 °F - 45.3 °F 34% 29.99 in 10.0 mi SE 16.1 mph - N/A   Clear
2:55 PM 75.6 °F - 45.1 °F 34% 29.99 in 10.0 mi SE 12.7 mph 21.9 mph N/A   Clear
3:15 PM 76.1 °F - 45.3 °F 33% 29.99 in 10.0 mi SSE 15.0 mph 20.7 mph N/A   Clear
3:35 PM 76.1 °F - 45.0 °F 33% 29.97 in 10.0 mi SE 12.7 mph 19.6 mph N/A   Clear
3:55 PM 75.7 °F - 44.1 °F 32% 29.97 in 10.0 mi SE 18.4 mph 24.2 mph N/A   Clear
4:15 PM 76.1 °F - 44.6 °F 33% 29.96 in 10.0 mi SE 15.0 mph 21.9 mph N/A   Clear
4:35 PM 75.7 °F - 45.5 °F 34% 29.96 in 10.0 mi SE 12.7 mph 19.6 mph N/A   Clear
4:55 PM 75.2 °F - 45.7 °F 35% 29.96 in 10.0 mi SE 15.0 mph - N/A   Clear
5:15 PM 74.3 °F - 46.6 °F 37% 29.95 in 10.0 mi SE 12.7 mph 20.7 mph N/A   Clear
5:35 PM 73.4 °F - 47.3 °F 39% 29.95 in 10.0 mi SE 10.4 mph - N/A   Clear
5:55 PM 72.1 °F - 47.1 °F 41% 29.95 in 10.0 mi SE 10.4 mph 16.1 mph N/A   Clear
6:15 PM 70.7 °F - 47.7 °F 44% 29.95 in 10.0 mi SE 8.1 mph - N/A   Clear
6:35 PM 68.9 °F - 48.2 °F 48% 29.94 in 10.0 mi SE 8.1 mph - N/A   Clear
6:55 PM 66.7 °F - 48.6 °F 52% 29.95 in 10.0 mi SE 6.9 mph - N/A   Clear
7:15 PM 65.5 °F - 48.7 °F 55% 29.95 in 10.0 mi SE 6.9 mph - N/A   Clear
7:35 PM 62.8 °F - 49.1 °F 61% 29.95 in 10.0 mi ESE 4.6 mph - N/A   Clear
7:55 PM 61.2 °F - 49.1 °F 65% 29.95 in 10.0 mi SE 6.9 mph - N/A   Clear
8:15 PM 60.8 °F - 49.1 °F 65% 29.94 in 10.0 mi SE 6.9 mph - N/A   Clear
8:35 PM 60.8 °F - 49.1 °F 65% 29.94 in 10.0 mi SE 6.9 mph - N/A   Clear
8:55 PM 60.3 °F - 49.1 °F 67% 29.94 in 10.0 mi SE 6.9 mph - N/A   Clear
9:15 PM 59.0 °F - 48.9 °F 69% 29.94 in 10.0 mi ESE 6.9 mph - N/A   Clear
9:35 PM 58.6 °F - 49.1 °F 71% 29.94 in 10.0 mi SE 8.1 mph - N/A   Clear
9:55 PM 58.3 °F - 49.1 °F 71% 29.94 in 10.0 mi ESE 6.9 mph - N/A   Clear
10:15 PM 57.2 °F - 49.1 °F 74% 29.94 in 10.0 mi ESE 5.8 mph - N/A   Clear
10:35 PM 54.7 °F - 48.4 °F 79% 29.94 in 10.0 mi SE 6.9 mph - N/A   Clear
10:55 PM 56.5 °F - 49.3 °F 77% 29.94 in 10.0 mi SE 5.8 mph - N/A   Clear
11:15 PM 54.9 °F - 48.7 °F 80% 29.94 in 10.0 mi SE 5.8 mph - N/A   Clear
11:35 PM 54.9 °F - 48.9 °F 80% 29.93 in 10.0 mi SE 6.9 mph - N/A   Clear
11:55 PM 54.9 °F - 48.9 °F 80% 29.93 in 10.0 mi SE 6.9 mph - N/A   Clear